Wind_Speed
15 14 14 13 13 14 14 14 15 16 16 17 17 17 15 14 15 15 13 12 13 18 18 15 15 14 14 15 16 16 16 17 14
12 12 12 11 12 13 13 14 14 15 16 16 17 18 18 18 17 14 13 15 15 19 21 18 18 17 15 17 19 20 20 18 16
11 10 10 10 10 10 11 12 13 14 15 16 17 17 18 19 19 18 14 14 19 20 22 23 20 20 20 20 20 20 20 21 19
11 11 10 10 10 10 10 10 10 11 11 12 14 16 17 18 17 18 18 14 18 23 23 23 23 23 23 24 24 23 23 23 23
13 11 12 11 10 10 9 9 9 9 9 10 10 11 12 14 14 12 8 15 18 21 24 24 24 25 26 27 27 26 25 24 23
11 9 10 11 11 10 10 9 9 8 8 8 8 8 6 6 7 11 15 20 20 21 25 25 24 25 28 30 30 29 29 29 27
11 12 11 9 9 10 9 9 8 9 9 9 9 9 9 10 10 10 12 19 23 27 29 30 31 29 29 29 32 33 33 32 30
9 9 11 10 10 10 10 9 10 11 11 10 11 11 11 11 11 11 13 17 18 19 22 26 29 34 38 34 33 33 36 35 33
10 8 9 10 10 10 11 11 11 12 12 12 12 13 12 12 11 12 13 15 16 18 20 23 25 27 30 37 42 37 33 37 36
10 9 9 11 12 12 12 12 13 13 12 11 13 12 13 13 13 13 14 16 20 22 22 23 24 26 29 32 35 41 39 34 39
11 10 10 11 13 13 13 13 14 14 13 13 12 13 13 14 13 13 15 19 21 22 23 24 23 24 25 28 31 34 39 39 35
12 11 11 13 14 13 13 13 14 14 14 13 13 13 10 12 11 12 15 19 20 21 20 22 22 23 23 24 26 29 34 39 32
13 13 13 14 15 14 14 15 16 15 16 15 15 14 10 8 9 11 15 18 18 19 20 20 20 23 24 24 24 24 26 28 39
14 14 14 15 15 14 15 16 16 17 16 18 17 13 11 5 6 9 14 19 14 19 20 19 18 19 20 20 23 22 24 23 31
15 15 15 16 16 15 15 16 15 16 17 19 17 12 3 5 5 10 13 19 21 20 24 22 18 16 23 20 21 23 25 23 25
16 15 15 15 16 16 15 16 17 15 15 20 20 8 1 6 9 7 14 19 22 22 21 24 23 16 14 11 15 19 21 18 20
16 16 15 15 15 15 14 16 17 15 13 15 17 12 4 5 2 4 8 16 22 19 21 20 19 18 15 12 12 10 6 5 5
16 16 15 15 15 15 15 15 16 17 12 8 7 7 5 22 2 8 11 11 17 21 18 18 15 17 13 15 16 11 7 5 3
16 15 15 15 15 15 15 15 16 15 15 11 4 8 11 8 14 12 21 13 13 15 18 18 16 11 13 14 12 14 18 4 2
15 16 16 15 14 14 15 15 15 14 15 13 13 12 11 10 15 19 22 23 18 12 18 15 17 16 10 12 14 13 15 19 14
Wind_Direction
312 307 301 298 293 287 283 280 276 274 272 269 266 266 272 272 276 278 272 256 252 262 274 269 259 248 236 244 255 262 267 279 270
326 320 316 309 303 296 293 289 285 280 276 273 269 266 263 263 266 269 267 276 267 265 275 269 261 254 248 245 252 260 270 271 268
330 331 328 324 318 312 306 301 296 291 285 279 275 273 268 263 263 262 261 263 269 269 261 269 265 256 251 248 251 253 257 267 268
343 345 342 334 328 321 317 312 305 301 299 293 284 279 275 272 268 266 264 254 264 269 271 270 265 262 258 256 256 255 257 258 263
355 353 347 340 338 336 334 329 326 322 316 309 305 301 295 283 277 271 285 278 274 266 268 266 266 263 262 259 257 257 253 255 257
344 347 342 347 348 350 352 350 342 339 325 320 326 319 312 295 274 254 248 253 258 256 255 259 262 264 264 262 258 255 254 252 251
353 353 353 354 357 354 355 354 344 343 340 332 327 322 313 302 293 279 263 259 258 262 263 260 257 260 259 261 261 257 253 251 249
347 349 340 351 351 346 346 344 336 335 334 330 325 316 314 310 303 294 285 284 285 282 276 272 267 260 257 259 258 259 254 250 248
344 339 340 338 340 342 340 338 335 333 333 329 324 320 315 311 307 305 304 303 306 301 295 289 282 275 266 260 257 254 255 251 246
354 352 345 340 340 341 343 342 342 341 341 338 334 334 333 331 329 327 329 325 320 316 312 304 293 282 275 268 262 256 250 250 247
355 352 349 341 344 344 346 346 344 341 339 337 334 326 325 324 319 331 331 332 328 323 322 317 307 292 285 279 271 264 256 246 249
354 354 350 344 346 347 347 345 343 338 335 335 331 323 321 322 317 331 337 324 323 321 321 326 319 310 299 293 283 272 261 246 255
351 349 344 341 343 344 343 342 340 338 337 335 333 328 323 316 311 344 315 328 328 330 324 316 316 314 308 297 292 275 261 252 250
343 342 337 335 337 339 336 336 339 338 337 332 334 328 320 313 319 313 329 348 345 345 333 318 314 313 313 299 292 278 264 266 260
335 334 332 330 332 332 331 331 337 339 334 332 337 337 36 325 333 317 344 355 359 359 4 3 349 340 324 300 286 280 258 251 245
332 329 329 327 326 327 327 324 329 339 337 333 340 1 247 262 352 340 341 351 355 356 1 6 13 7 2 330 321 294 265 252 239
334 332 329 327 325 325 324 323 325 334 348 346 346 353 64 234 273 357 357 351 344 352 359 5 16 28 15 349 321 347 65 70 216
336 337 334 332 329 327 325 324 324 328 338 344 347 338 325 328 219 318 352 337 348 345 348 352 0 4 9 21 9 354 306 316 310
338 339 336 333 329 327 325 322 318 320 325 330 275 267 291 310 320 313 325 320 338 340 338 349 342 4 1 3 5 359 45 60 55
339 341 339 338 334 330 326 323 320 318 313 313 311 306 298 292 299 311 309 319 335 336 324 344 348 345 346 351 355 6 348 11 37
Height
1523 1522 1521 1521 1520 1520 1520 1520 1520 1520 1520 1520 1521 1521 1522 1522 1522 1523 1524 1525 1526 1525 1526 1526 1526 1527 1527 1528 1528 1528 1529 1529 1530
1522 1521 1520 1519 1518 1517 1517 1517 1516 1516 1517 1517 1517 1517 1518 1518 1519 1520 1521 1522 1523 1523 1522 1523 1524 1524 1525 1525 1526 1526 1526 1526 1527
1521 1520 1519 1518 1517 1516 1515 1514 1514 1513 1513 1513 1513 1513 1514 1514 1515 1516 1518 1519 1520 1519 1519 1520 1521 1521 1522 1522 1522 1523 1523 1523 1524
1520 1519 1518 1517 1516 1515 1514 1513 1512 1511 1510 1510 1509 1509 1509 1510 1511 1512 1514 1516 1516 1516 1516 1516 1517 1517 1518 1518 1519 1519 1520 1520 1520
1519 1519 1518 1517 1515 1514 1512 1511 1510 1509 1508 1507 1507 1506 1506 1506 1507 1509 1510 1511 1512 1513 1512 1512 1512 1512 1513 1513 1514 1515 1515 1516 1517
1520 1518 1517 1516 1515 1513 1511 1510 1509 1508 1507 1505 1505 1504 1503 1503 1504 1505 1506 1506 1506 1506 1506 1507 1507 1508 1508 1508 1508 1509 1510 1511 1512
1519 1518 1516 1515 1514 1513 1511 1509 1508 1507 1506 1505 1503 1502 1501 1501 1501 1502 1502 1501 1501 1501 1501 1501 1501 1501 1501 1501 1502 1503 1504 1505 1507
1519 1518 1516 1515 1513 1513 1511 1509 1507 1506 1504 1503 1502 1500 1499 1498 1498 1498 1498 1497 1497 1496 1494 1494 1493 1493 1494 1494 1495 1496 1497 1499 1501
1517 1516 1516 1514 1512 1510 1510 1508 1506 1504 1503 1501 1500 1499 1498 1497 1496 1495 1495 1494 1492 1491 1489 1488 1487 1486 1485 1486 1486 1487 1489 1491 1494
1517 1516 1515 1513 1511 1509 1508 1506 1505 1502 1501 1499 1498 1497 1496 1495 1494 1493 1491 1490 1488 1486 1484 1482 1480 1478 1477 1476 1476 1477 1480 1483 1486
1516 1515 1514 1512 1510 1508 1506 1505 1503 1501 1499 1497 1496 1495 1494 1493 1492 1491 1489 1487 1485 1483 1480 1477 1474 1472 1471 1470 1469 1469 1470 1475 1476
1517 1515 1513 1511 1509 1507 1505 1504 1502 1500 1498 1496 1494 1493 1492 1491 1491 1489 1487 1485 1482 1479 1477 1473 1471 1469 1466 1464 1462 1461 1461 1464 1466
1517 1515 1513 1510 1508 1506 1504 1502 1500 1498 1496 1494 1492 1490 1489 1490 1489 1488 1485 1483 1480 1476 1473 1470 1467 1465 1462 1459 1457 1455 1455 1454 1458
1516 1514 1512 1510 1508 1505 1503 1501 1499 1496 1494 1492 1490 1488 1487 1488 1488 1486 1485 1482 1478 1475 1471 1467 1464 1460 1454 1452 1451 1449 1449 1447 1450
1514 1512 1510 1508 1506 1504 1502 1500 1498 1495 1492 1490 1488 1485 1485 1486 1486 1485 1483 1481 1478 1474 1470 1466 1462 1456 1449 1447 1445 1443 1441 1440 1440
1512 1510 1508 1506 1504 1502 1500 1498 1496 1494 1491 1488 1485 1484 1483 1484 1484 1483 1481 1480 1478 1475 1472 1467 1461 1455 1451 1448 1444 1440 1436 1434 1436
1511 1508 1506 1504 1502 1501 1499 1497 1495 1493 1492 1489 1485 1483 1483 1482 1481 1481 1480 1479 1477 1474 1472 1468 1463 1458 1452 1450 1446 1439 1437 1435 1435
1509 1506 1504 1502 1500 1498 1497 1496 1494 1492 1492 1491 1491 1488 1486 1483 1479 1478 1478 1477 1476 1473 1470 1468 1463 1460 1454 1450 1446 1442 1439 1438 1437
1507 1504 1502 1500 1498 1497 1495 1494 1493 1491 1490 1490 1490 1489 1488 1485 1478 1476 1476 1476 1474 1471 1469 1467 1463 1460 1458 1453 1448 1441 1437 1439 1438
1505 1503 1500 1498 1496 1495 1493 1492 1490 1489 1488 1488 1487 1486 1486 1485 1482 1476 1473 1472 1472 1469 1466 1466 1463 1460 1457 1454 1451 1445 1440 1437 1438